Year,Month,Day,Hour,Minute,Value (Times are PST for temperature in C)
2012,04,22,00,00,10.40
2012,04,22,00,01,10.40
2012,04,22,00,02,10.40
2012,04,22,00,03,10.40
2012,04,22,00,04,10.40
2012,04,22,00,05,10.40
2012,04,22,00,06,10.30
2012,04,22,00,07,10.30
2012,04,22,00,08,10.30
2012,04,22,00,09,10.30
2012,04,22,00,10,10.30
2012,04,22,00,11,10.30
2012,04,22,00,12,10.30
2012,04,22,00,13,10.20
2012,04,22,00,14,10.20
2012,04,22,00,15,10.20
2012,04,22,00,16,10.20
2012,04,22,00,17,10.20
2012,04,22,00,18,10.20
2012,04,22,00,19,10.20
2012,04,22,00,20,10.20
2012,04,22,00,21,10.10
2012,04,22,00,22,10.10
2012,04,22,00,23,10.10
2012,04,22,00,24,10.10
2012,04,22,00,25,10.10
2012,04,22,00,26,10.10
2012,04,22,00,27,10.10
2012,04,22,00,28,10.10
2012,04,22,00,29,10.10
2012,04,22,00,30,10.00
2012,04,22,00,31,10.00
2012,04,22,00,32,10.00
2012,04,22,00,33,10.00
2012,04,22,00,34,10.00
2012,04,22,00,35,9.90
2012,04,22,00,36,9.90
2012,04,22,00,37,9.90
2012,04,22,00,38,9.90
2012,04,22,00,39,9.90
2012,04,22,00,40,9.90
2012,04,22,00,41,9.90
2012,04,22,00,42,9.90
2012,04,22,00,43,9.90
2012,04,22,00,44,9.90
2012,04,22,00,45,9.90
2012,04,22,00,46,9.90
2012,04,22,00,47,9.90
2012,04,22,00,48,9.90
2012,04,22,00,49,9.90
2012,04,22,00,50,9.90
2012,04,22,00,51,9.90
2012,04,22,00,52,9.90
2012,04,22,00,53,9.90
2012,04,22,00,54,9.90
2012,04,22,00,55,9.90
2012,04,22,00,56,9.90
2012,04,22,00,57,9.90
2012,04,22,00,58,9.90
2012,04,22,00,59,9.90
2012,04,22,01,00,9.90
2012,04,22,01,01,9.90
2012,04,22,01,02,9.90
2012,04,22,01,03,9.80
2012,04,22,01,04,9.80
2012,04,22,01,05,9.80
2012,04,22,01,06,9.80
2012,04,22,01,07,9.80
2012,04,22,01,08,9.80
2012,04,22,01,09,9.80
2012,04,22,01,10,9.80
2012,04,22,01,11,9.80
2012,04,22,01,12,9.80
2012,04,22,01,13,9.80
2012,04,22,01,14,9.80
2012,04,22,01,15,9.80
2012,04,22,01,16,9.80
2012,04,22,01,17,9.80
2012,04,22,01,18,9.80
2012,04,22,01,19,9.80
2012,04,22,01,20,9.80
2012,04,22,01,21,9.80
2012,04,22,01,22,9.80
2012,04,22,01,23,9.80
2012,04,22,01,24,9.80
2012,04,22,01,25,9.80
2012,04,22,01,26,9.70
2012,04,22,01,27,9.70
2012,04,22,01,28,9.70
2012,04,22,01,29,9.70
2012,04,22,01,30,9.70
2012,04,22,01,31,9.70
2012,04,22,01,32,9.70
2012,04,22,01,33,9.70
2012,04,22,01,34,9.70
2012,04,22,01,35,9.70
2012,04,22,01,36,9.60
2012,04,22,01,37,9.60
2012,04,22,01,38,9.60
2012,04,22,01,39,9.60
2012,04,22,01,40,9.60
2012,04,22,01,41,9.50
2012,04,22,01,42,9.50
2012,04,22,01,43,9.50
2012,04,22,01,44,9.50
2012,04,22,01,45,9.50
2012,04,22,01,46,9.50
2012,04,22,01,47,9.40
2012,04,22,01,48,9.40
2012,04,22,01,49,9.40
2012,04,22,01,50,9.40
2012,04,22,01,51,9.40
2012,04,22,01,52,9.40
2012,04,22,01,53,9.40
2012,04,22,01,54,9.40
2012,04,22,01,55,9.40
2012,04,22,01,56,9.40
2012,04,22,01,57,9.40
2012,04,22,01,58,9.40
2012,04,22,01,59,9.40
2012,04,22,02,00,9.30
2012,04,22,02,01,9.40
2012,04,22,02,02,9.40
2012,04,22,02,03,9.30
2012,04,22,02,04,9.30
2012,04,22,02,05,9.30
2012,04,22,02,06,9.30
2012,04,22,02,07,9.30
2012,04,22,02,08,9.30
2012,04,22,02,09,9.30
2012,04,22,02,10,9.30
2012,04,22,02,11,9.30
2012,04,22,02,12,9.30
2012,04,22,02,13,9.30
2012,04,22,02,14,9.40
2012,04,22,02,15,9.40
2012,04,22,02,16,9.40
2012,04,22,02,17,9.40
2012,04,22,02,18,9.40
2012,04,22,02,19,9.40
2012,04,22,02,20,9.40
2012,04,22,02,21,9.40
2012,04,22,02,22,9.40
2012,04,22,02,23,9.40
2012,04,22,02,24,9.40
2012,04,22,02,25,9.40
2012,04,22,02,26,9.40
2012,04,22,02,27,9.40
2012,04,22,02,28,9.40
2012,04,22,02,29,9.40
2012,04,22,02,30,9.40
2012,04,22,02,31,9.40
2012,04,22,02,32,9.40
2012,04,22,02,33,9.40
2012,04,22,02,34,9.40
2012,04,22,02,35,9.40
2012,04,22,02,36,9.40
2012,04,22,02,37,9.40
2012,04,22,02,38,9.40
2012,04,22,02,39,9.40
2012,04,22,02,40,9.30
2012,04,22,02,41,9.30
2012,04,22,02,42,9.30
2012,04,22,02,43,9.30
2012,04,22,02,44,9.30
2012,04,22,02,45,9.40
2012,04,22,02,46,9.40
2012,04,22,02,47,9.40
2012,04,22,02,48,9.40
2012,04,22,02,49,9.40
2012,04,22,02,50,9.40
2012,04,22,02,51,9.40
2012,04,22,02,52,9.40
2012,04,22,02,53,9.40
2012,04,22,02,54,9.40
2012,04,22,02,55,9.30
2012,04,22,02,56,9.30
2012,04,22,02,57,9.30
2012,04,22,02,58,9.30
2012,04,22,02,59,9.30
2012,04,22,03,00,9.30
2012,04,22,03,01,9.30
2012,04,22,03,02,9.30
2012,04,22,03,03,9.30
2012,04,22,03,04,9.30
2012,04,22,03,05,9.30
2012,04,22,03,06,9.30
2012,04,22,03,07,9.30
2012,04,22,03,08,9.30
2012,04,22,03,09,9.30
2012,04,22,03,10,9.30
2012,04,22,03,11,9.30
2012,04,22,03,12,9.30
2012,04,22,03,13,9.30
2012,04,22,03,14,9.30
2012,04,22,03,15,9.30
2012,04,22,03,16,9.30
2012,04,22,03,17,9.30
2012,04,22,03,18,9.30
2012,04,22,03,19,9.30
2012,04,22,03,20,9.30
2012,04,22,03,21,9.30
2012,04,22,03,22,9.30
2012,04,22,03,23,9.30
2012,04,22,03,24,9.30
2012,04,22,03,25,9.30
2012,04,22,03,26,9.30
2012,04,22,03,27,9.30
2012,04,22,03,28,9.30
2012,04,22,03,29,9.20
2012,04,22,03,30,9.20
2012,04,22,03,31,9.20
2012,04,22,03,32,9.20
2012,04,22,03,33,9.20
2012,04,22,03,34,9.20
2012,04,22,03,35,9.20
2012,04,22,03,36,9.20
2012,04,22,03,37,9.20
2012,04,22,03,38,9.20
2012,04,22,03,39,9.20
2012,04,22,03,40,9.20
2012,04,22,03,41,9.20
2012,04,22,03,42,9.20
2012,04,22,03,43,9.20
2012,04,22,03,44,9.20
2012,04,22,03,45,9.20
2012,04,22,03,46,9.20
2012,04,22,03,47,9.20
2012,04,22,03,48,9.20
2012,04,22,03,49,9.20
2012,04,22,03,50,9.20
2012,04,22,03,51,9.20
2012,04,22,03,52,9.20
2012,04,22,03,53,9.20
2012,04,22,03,54,9.20
2012,04,22,03,55,9.20
2012,04,22,03,56,9.20
2012,04,22,03,57,9.20
2012,04,22,03,58,9.10
2012,04,22,03,59,9.10
2012,04,22,04,00,9.10
2012,04,22,04,01,9.10
2012,04,22,04,02,9.10
2012,04,22,04,03,9.10
2012,04,22,04,04,9.10
2012,04,22,04,05,9.10
2012,04,22,04,06,9.10
2012,04,22,04,07,9.10
2012,04,22,04,08,9.10
2012,04,22,04,09,9.10
2012,04,22,04,10,9.10
2012,04,22,04,11,9.10
2012,04,22,04,12,9.00
2012,04,22,04,13,9.00
2012,04,22,04,14,9.00
2012,04,22,04,15,8.90
2012,04,22,04,16,8.90
2012,04,22,04,17,8.90
2012,04,22,04,18,8.90
2012,04,22,04,19,8.90
2012,04,22,04,20,8.90
2012,04,22,04,21,8.90
2012,04,22,04,22,8.90
2012,04,22,04,23,8.90
2012,04,22,04,24,8.90
2012,04,22,04,25,8.90
2012,04,22,04,26,8.90
2012,04,22,04,27,8.90
2012,04,22,04,28,8.90
2012,04,22,04,29,8.80
2012,04,22,04,30,8.80
2012,04,22,04,31,8.80
2012,04,22,04,32,8.80
2012,04,22,04,33,8.80
2012,04,22,04,34,8.80
2012,04,22,04,35,8.80
2012,04,22,04,36,8.80
2012,04,22,04,37,8.80
2012,04,22,04,38,8.80
2012,04,22,04,39,8.80
2012,04,22,04,40,8.80
2012,04,22,04,41,8.80
2012,04,22,04,42,8.80
2012,04,22,04,43,8.80
2012,04,22,04,44,8.80
2012,04,22,04,45,8.80
2012,04,22,04,46,8.80
2012,04,22,04,47,8.80
2012,04,22,04,48,8.80
2012,04,22,04,49,8.80
2012,04,22,04,50,8.80
2012,04,22,04,51,8.80
2012,04,22,04,52,8.80
2012,04,22,04,53,8.80
2012,04,22,04,54,8.80
2012,04,22,04,55,8.80
2012,04,22,04,56,8.80
2012,04,22,04,57,8.80
2012,04,22,04,58,8.80
2012,04,22,04,59,8.80
2012,04,22,05,00,8.80
2012,04,22,05,01,8.80
2012,04,22,05,02,8.70
2012,04,22,05,03,8.70
2012,04,22,05,04,8.70
2012,04,22,05,05,8.70
2012,04,22,05,06,8.70
2012,04,22,05,07,8.70
2012,04,22,05,08,8.70
2012,04,22,05,09,8.70
2012,04,22,05,10,8.70
2012,04,22,05,11,8.70
2012,04,22,05,12,8.70
2012,04,22,05,13,8.70
2012,04,22,05,14,8.70
2012,04,22,05,15,8.70
2012,04,22,05,16,8.70
2012,04,22,05,17,8.70
2012,04,22,05,18,8.80
2012,04,22,05,19,8.80
2012,04,22,05,20,8.80
2012,04,22,05,21,8.80
2012,04,22,05,22,8.80
2012,04,22,05,23,8.80
2012,04,22,05,24,8.80
2012,04,22,05,25,8.80
2012,04,22,05,26,8.80
2012,04,22,05,27,8.80
2012,04,22,05,28,8.80
2012,04,22,05,29,8.80
2012,04,22,05,30,8.80
2012,04,22,05,31,8.80
2012,04,22,05,32,8.80
2012,04,22,05,33,8.80
2012,04,22,05,34,8.80
2012,04,22,05,35,8.80
2012,04,22,05,36,8.80
2012,04,22,05,37,8.80
2012,04,22,05,38,8.80
2012,04,22,05,39,8.80
2012,04,22,05,40,8.80
2012,04,22,05,41,8.80
2012,04,22,05,42,8.80
2012,04,22,05,43,8.80
2012,04,22,05,44,8.70
2012,04,22,05,45,8.70
2012,04,22,05,46,8.70
2012,04,22,05,47,8.70
2012,04,22,05,48,8.70
2012,04,22,05,49,8.70
2012,04,22,05,50,8.70
2012,04,22,05,51,8.70
2012,04,22,05,52,8.70
2012,04,22,05,53,8.70
2012,04,22,05,54,8.70
2012,04,22,05,55,8.70
2012,04,22,05,56,8.70
2012,04,22,05,57,8.70
2012,04,22,05,58,8.70
2012,04,22,05,59,8.60
2012,04,22,06,00,8.60
2012,04,22,06,01,8.60
2012,04,22,06,02,8.60
2012,04,22,06,03,8.60
2012,04,22,06,04,8.60
2012,04,22,06,05,8.60
2012,04,22,06,06,8.60
2012,04,22,06,07,8.60
2012,04,22,06,08,8.50
2012,04,22,06,09,8.50
2012,04,22,06,10,8.50
2012,04,22,06,11,8.50
2012,04,22,06,12,8.50
2012,04,22,06,13,8.50
2012,04,22,06,14,8.40
2012,04,22,06,15,8.40
2012,04,22,06,16,8.40
2012,04,22,06,17,8.40
2012,04,22,06,18,8.40
2012,04,22,06,19,8.40
2012,04,22,06,20,8.40
2012,04,22,06,21,8.40
2012,04,22,06,22,8.40
2012,04,22,06,23,8.40
2012,04,22,06,24,8.40
2012,04,22,06,25,8.40
2012,04,22,06,26,8.40
2012,04,22,06,27,8.40
2012,04,22,06,28,8.40
2012,04,22,06,29,8.40
2012,04,22,06,30,8.40
2012,04,22,06,31,8.40
2012,04,22,06,32,8.40
2012,04,22,06,33,8.40
2012,04,22,06,34,8.40
2012,04,22,06,35,8.40
2012,04,22,06,36,8.40
2012,04,22,06,37,8.40
2012,04,22,06,38,8.40
2012,04,22,06,39,8.40
2012,04,22,06,40,8.40
2012,04,22,06,41,8.40
2012,04,22,06,42,8.40
2012,04,22,06,43,8.40
2012,04,22,06,44,8.40
2012,04,22,06,45,8.40
2012,04,22,06,46,8.50
2012,04,22,06,47,8.50
2012,04,22,06,48,8.50
2012,04,22,06,49,8.50
2012,04,22,06,50,8.50
2012,04,22,06,51,8.60
2012,04,22,06,52,8.60
2012,04,22,06,53,8.60
2012,04,22,06,54,8.60
2012,04,22,06,55,8.60
2012,04,22,06,56,8.60
2012,04,22,06,57,8.60
2012,04,22,06,58,8.60
2012,04,22,06,59,8.60
2012,04,22,07,00,8.60
2012,04,22,07,01,8.60
2012,04,22,07,02,8.60
2012,04,22,07,03,8.70
2012,04,22,07,04,8.70
2012,04,22,07,05,8.70
2012,04,22,07,06,8.70
2012,04,22,07,07,8.70
2012,04,22,07,08,8.70
2012,04,22,07,09,8.70
2012,04,22,07,10,8.70
2012,04,22,07,11,8.70
2012,04,22,07,12,8.70
2012,04,22,07,13,8.70
2012,04,22,07,14,8.70
2012,04,22,07,15,8.70
2012,04,22,07,16,8.70
2012,04,22,07,17,8.70
2012,04,22,07,18,8.70
2012,04,22,07,19,8.70
2012,04,22,07,20,8.70
2012,04,22,07,21,8.80
2012,04,22,07,22,8.80
2012,04,22,07,23,8.80
2012,04,22,07,24,8.80
2012,04,22,07,25,8.80
2012,04,22,07,26,8.80
2012,04,22,07,27,8.80
2012,04,22,07,28,8.80
2012,04,22,07,29,8.80
2012,04,22,07,30,8.90
2012,04,22,07,31,8.90
2012,04,22,07,32,8.90
2012,04,22,07,33,8.90
2012,04,22,07,34,8.90
2012,04,22,07,35,8.90
2012,04,22,07,36,8.90
2012,04,22,07,37,8.90
2012,04,22,07,38,8.90
2012,04,22,07,39,8.90
2012,04,22,07,40,9.00
2012,04,22,07,41,9.00
2012,04,22,07,42,9.00
2012,04,22,07,43,9.00
2012,04,22,07,44,9.00
2012,04,22,07,45,9.10
2012,04,22,07,46,9.10
2012,04,22,07,47,9.10
2012,04,22,07,48,9.10
2012,04,22,07,49,9.10
2012,04,22,07,50,9.10
2012,04,22,07,51,9.10
2012,04,22,07,52,9.10
2012,04,22,07,53,9.20
2012,04,22,07,54,9.20
2012,04,22,07,55,9.20
2012,04,22,07,56,9.20
2012,04,22,07,57,9.20
2012,04,22,07,58,9.20
2012,04,22,07,59,9.30
2012,04,22,08,00,9.30
2012,04,22,08,01,9.30
2012,04,22,08,02,9.30
2012,04,22,08,03,9.40
2012,04,22,08,04,9.40
2012,04,22,08,05,9.40
2012,04,22,08,06,9.40
2012,04,22,08,07,9.50
2012,04,22,08,08,9.50
2012,04,22,08,09,9.50
2012,04,22,08,10,9.50
2012,04,22,08,11,9.60
2012,04,22,08,12,9.60
2012,04,22,08,13,9.60
2012,04,22,08,14,9.60
2012,04,22,08,15,9.70
2012,04,22,08,16,9.70
2012,04,22,08,17,9.70
2012,04,22,08,18,9.70
2012,04,22,08,19,9.80
2012,04,22,08,20,9.80
2012,04,22,08,21,9.80
2012,04,22,08,22,9.80
2012,04,22,08,23,9.80
2012,04,22,08,24,9.80
2012,04,22,08,25,9.80
2012,04,22,08,26,9.80
2012,04,22,08,27,9.80
2012,04,22,08,28,9.90
2012,04,22,08,29,9.90
2012,04,22,08,30,9.90
2012,04,22,08,31,9.90
2012,04,22,08,32,9.90
2012,04,22,08,33,10.00
2012,04,22,08,34,10.00
2012,04,22,08,35,10.10
2012,04,22,08,36,10.10
2012,04,22,08,37,10.10
2012,04,22,08,38,10.10
2012,04,22,08,39,10.10
2012,04,22,08,40,10.20
2012,04,22,08,41,10.20
2012,04,22,08,42,10.20
2012,04,22,08,43,10.20
2012,04,22,08,44,10.30
2012,04,22,08,45,10.30
2012,04,22,08,46,10.30
2012,04,22,08,47,10.30
2012,04,22,08,48,10.30
2012,04,22,08,49,10.30
2012,04,22,08,50,10.40
2012,04,22,08,51,10.40
2012,04,22,08,52,10.40
2012,04,22,08,53,10.40
2012,04,22,08,54,10.40
2012,04,22,08,55,10.40
2012,04,22,08,56,10.40
2012,04,22,08,57,10.50
2012,04,22,08,58,10.50
2012,04,22,08,59,10.50
2012,04,22,09,00,10.50
2012,04,22,09,01,10.60
2012,04,22,09,02,10.60
2012,04,22,09,03,10.60
2012,04,22,09,04,10.70
2012,04,22,09,05,10.70
2012,04,22,09,06,10.70
2012,04,22,09,07,10.80
2012,04,22,09,08,10.80
2012,04,22,09,09,10.90
2012,04,22,09,10,10.90
2012,04,22,09,11,10.90
2012,04,22,09,12,11.00
2012,04,22,09,13,11.00
2012,04,22,09,14,11.00
2012,04,22,09,15,11.10
2012,04,22,09,16,11.10
2012,04,22,09,17,11.10
2012,04,22,09,18,11.10
2012,04,22,09,19,11.10
2012,04,22,09,20,11.20
2012,04,22,09,21,11.20
2012,04,22,09,22,11.20
2012,04,22,09,23,11.20
2012,04,22,09,24,11.20
2012,04,22,09,25,11.30
2012,04,22,09,26,11.30
2012,04,22,09,27,11.30
2012,04,22,09,28,11.30
2012,04,22,09,29,11.30
2012,04,22,09,30,11.40
2012,04,22,09,31,11.40
2012,04,22,09,32,11.40
2012,04,22,09,33,11.50
2012,04,22,09,34,11.50
2012,04,22,09,35,11.60
2012,04,22,09,36,11.60
2012,04,22,09,37,11.70
2012,04,22,09,38,11.70
2012,04,22,09,39,11.80
2012,04,22,09,40,11.80
2012,04,22,09,41,11.90
2012,04,22,09,42,11.90
2012,04,22,09,43,12.00
2012,04,22,09,44,12.10
2012,04,22,09,45,12.20
2012,04,22,09,46,12.20
2012,04,22,09,47,12.30
2012,04,22,09,48,12.40
2012,04,22,09,49,12.50
2012,04,22,09,50,12.60
2012,04,22,09,51,12.70
2012,04,22,09,52,12.70
2012,04,22,09,53,12.80
2012,04,22,09,54,12.90
2012,04,22,09,55,12.90
2012,04,22,09,56,13.00
2012,04,22,09,57,13.00
2012,04,22,09,58,13.10
2012,04,22,09,59,13.10
2012,04,22,10,00,13.10
2012,04,22,10,01,13.20
2012,04,22,10,02,13.20
2012,04,22,10,03,13.20
2012,04,22,10,04,13.30
2012,04,22,10,05,13.30
2012,04,22,10,06,13.30
2012,04,22,10,07,13.30
2012,04,22,10,08,13.40
2012,04,22,10,09,13.40
2012,04,22,10,10,13.40
2012,04,22,10,11,13.50
2012,04,22,10,12,13.50
2012,04,22,10,13,13.50
2012,04,22,10,14,13.50
2012,04,22,10,15,13.60
2012,04,22,10,16,13.60
2012,04,22,10,17,13.60
2012,04,22,10,18,13.60
2012,04,22,10,19,13.70
2012,04,22,10,20,13.70
2012,04,22,10,21,13.80
2012,04,22,10,22,13.80
2012,04,22,10,23,13.80
2012,04,22,10,24,13.90
2012,04,22,10,25,13.90
2012,04,22,10,26,14.00
2012,04,22,10,27,14.00
2012,04,22,10,28,14.10
2012,04,22,10,29,14.10
2012,04,22,10,30,14.10
2012,04,22,10,31,14.10
2012,04,22,10,32,14.20
2012,04,22,10,33,14.20
2012,04,22,10,34,14.30
2012,04,22,10,35,14.30
2012,04,22,10,36,14.30
2012,04,22,10,37,14.30
2012,04,22,10,38,14.40
2012,04,22,10,39,14.40
2012,04,22,10,40,14.40
2012,04,22,10,41,14.50
2012,04,22,10,42,14.50
2012,04,22,10,43,14.60
2012,04,22,10,44,14.60
2012,04,22,10,45,14.70
2012,04,22,10,46,14.80
2012,04,22,10,47,14.80
2012,04,22,10,48,14.80
2012,04,22,10,49,14.90
2012,04,22,10,50,14.90
2012,04,22,10,51,15.00
2012,04,22,10,52,15.00
2012,04,22,10,53,15.10
2012,04,22,10,54,15.10
2012,04,22,10,55,15.10
2012,04,22,10,56,15.10
2012,04,22,10,57,15.10
2012,04,22,10,58,15.10
2012,04,22,10,59,15.10
2012,04,22,11,00,15.10
2012,04,22,11,01,15.20
2012,04,22,11,02,15.20
2012,04,22,11,03,15.20
2012,04,22,11,04,15.20
2012,04,22,11,05,15.20
2012,04,22,11,06,15.20
2012,04,22,11,07,15.30
2012,04,22,11,08,15.30
2012,04,22,11,09,15.30
2012,04,22,11,10,15.30
2012,04,22,11,11,15.20
2012,04,22,11,12,15.20
2012,04,22,11,13,15.20
2012,04,22,11,14,15.20
2012,04,22,11,15,15.20
2012,04,22,11,16,15.20
2012,04,22,11,17,15.10
2012,04,22,11,18,15.10
2012,04,22,11,19,15.10
2012,04,22,11,20,15.10
2012,04,22,11,21,15.20
2012,04,22,11,22,15.20
2012,04,22,11,23,15.20
2012,04,22,11,24,15.10
2012,04,22,11,25,15.10
2012,04,22,11,26,15.10
2012,04,22,11,27,15.10
2012,04,22,11,28,15.10
2012,04,22,11,29,15.20
2012,04,22,11,30,15.20
2012,04,22,11,31,15.20
2012,04,22,11,32,15.30
2012,04,22,11,33,15.40
2012,04,22,11,34,15.50
2012,04,22,11,35,15.60
2012,04,22,11,36,15.60
2012,04,22,11,37,15.70
2012,04,22,11,38,15.70
2012,04,22,11,39,15.70
2012,04,22,11,40,15.80
2012,04,22,11,41,15.80
2012,04,22,11,42,15.80
2012,04,22,11,43,15.80
2012,04,22,11,44,15.90
2012,04,22,11,45,15.90
2012,04,22,11,46,15.90
2012,04,22,11,47,15.90
2012,04,22,11,48,16.00
2012,04,22,11,49,16.00
2012,04,22,11,50,16.00
2012,04,22,11,51,16.10
2012,04,22,11,52,16.10
2012,04,22,11,53,16.10
2012,04,22,11,54,16.10
2012,04,22,11,55,16.20
2012,04,22,11,56,16.20
2012,04,22,11,57,16.20
2012,04,22,11,58,16.20
2012,04,22,11,59,16.20
2012,04,22,12,00,16.20
2012,04,22,12,01,16.30
2012,04,22,12,02,16.30
2012,04,22,12,03,16.30
2012,04,22,12,04,16.30
2012,04,22,12,05,16.40
2012,04,22,12,06,16.40
2012,04,22,12,07,16.50
2012,04,22,12,08,16.50
2012,04,22,12,09,16.60
2012,04,22,12,10,16.60
2012,04,22,12,11,16.70
2012,04,22,12,12,16.70
2012,04,22,12,13,16.70
2012,04,22,12,14,16.80
2012,04,22,12,15,16.80
2012,04,22,12,16,16.80
2012,04,22,12,17,16.80
2012,04,22,12,18,16.80
2012,04,22,12,19,16.90
2012,04,22,12,20,16.90
2012,04,22,12,21,16.90
2012,04,22,12,22,17.00
2012,04,22,12,23,17.00
2012,04,22,12,24,16.90
2012,04,22,12,25,16.90
2012,04,22,12,26,16.80
2012,04,22,12,27,16.80
2012,04,22,12,28,16.70
2012,04,22,12,29,16.70
2012,04,22,12,30,16.70
2012,04,22,12,31,16.70
2012,04,22,12,32,16.70
2012,04,22,12,33,16.80
2012,04,22,12,34,16.80
2012,04,22,12,35,16.90
2012,04,22,12,36,16.90
2012,04,22,12,37,17.00
2012,04,22,12,38,17.00
2012,04,22,12,39,17.00
2012,04,22,12,40,17.10
2012,04,22,12,41,17.10
2012,04,22,12,42,17.10
2012,04,22,12,43,17.10
2012,04,22,12,44,17.10
2012,04,22,12,45,17.10
2012,04,22,12,46,17.10
2012,04,22,12,47,17.10
2012,04,22,12,48,17.10
2012,04,22,12,49,17.20
2012,04,22,12,50,17.10
2012,04,22,12,51,17.20
2012,04,22,12,52,17.20
2012,04,22,12,53,17.20
2012,04,22,12,54,17.30
2012,04,22,12,55,17.30
2012,04,22,12,56,17.20
2012,04,22,12,57,17.20
2012,04,22,12,58,17.20
2012,04,22,12,59,17.20
2012,04,22,13,00,17.30
2012,04,22,13,01,17.30
2012,04,22,13,02,17.40
2012,04,22,13,03,17.50
2012,04,22,13,04,17.50
2012,04,22,13,05,17.60
2012,04,22,13,06,17.70
2012,04,22,13,07,17.70
2012,04,22,13,08,17.70
2012,04,22,13,09,17.70
2012,04,22,13,10,17.70
2012,04,22,13,11,17.70
2012,04,22,13,12,17.70
2012,04,22,13,13,17.70
2012,04,22,13,14,17.80
2012,04,22,13,15,17.80
2012,04,22,13,16,17.80
2012,04,22,13,17,17.90
2012,04,22,13,18,17.90
2012,04,22,13,19,18.00
2012,04,22,13,20,18.10
2012,04,22,13,21,18.10
2012,04,22,13,22,18.20
2012,04,22,13,23,18.20
2012,04,22,13,24,18.30
2012,04,22,13,25,18.30
2012,04,22,13,26,18.30
2012,04,22,13,27,18.20
2012,04,22,13,28,18.10
2012,04,22,13,29,18.00
2012,04,22,13,30,17.90
2012,04,22,13,31,17.80
2012,04,22,13,32,17.80
2012,04,22,13,33,17.80
2012,04,22,13,34,17.80
2012,04,22,13,35,17.80
2012,04,22,13,36,17.80
2012,04,22,13,37,17.70
2012,04,22,13,38,17.70
2012,04,22,13,39,17.70
2012,04,22,13,40,17.70
2012,04,22,13,41,17.60
2012,04,22,13,42,17.60
2012,04,22,13,43,17.60
2012,04,22,13,44,17.70
2012,04,22,13,45,17.70
2012,04,22,13,46,17.70
2012,04,22,13,47,17.70
2012,04,22,13,48,17.70
2012,04,22,13,49,17.70
2012,04,22,13,50,17.70
2012,04,22,13,51,17.60
2012,04,22,13,52,17.50
2012,04,22,13,53,17.50
2012,04,22,13,54,17.40
2012,04,22,13,55,17.40
2012,04,22,13,56,17.30
2012,04,22,13,57,17.30
2012,04,22,13,58,17.30
2012,04,22,13,59,17.30
2012,04,22,14,00,17.30
2012,04,22,14,01,17.30
2012,04,22,14,02,17.40
2012,04,22,14,03,17.40
2012,04,22,14,04,17.50
2012,04,22,14,05,17.50
2012,04,22,14,06,17.50
2012,04,22,14,07,17.50
2012,04,22,14,08,17.50
2012,04,22,14,09,17.50
2012,04,22,14,10,17.50
2012,04,22,14,11,17.60
2012,04,22,14,12,17.60
2012,04,22,14,13,17.60
2012,04,22,14,14,17.70
2012,04,22,14,15,17.70
2012,04,22,14,16,17.70
2012,04,22,14,17,17.70
2012,04,22,14,18,17.70
2012,04,22,14,19,17.70
2012,04,22,14,20,17.70
2012,04,22,14,21,17.70
2012,04,22,14,22,17.60
2012,04,22,14,23,17.60
2012,04,22,14,24,17.60
2012,04,22,14,25,17.60
2012,04,22,14,26,17.60
2012,04,22,14,27,17.60
2012,04,22,14,28,17.60
2012,04,22,14,29,17.50
2012,04,22,14,30,17.50
2012,04,22,14,31,17.50
2012,04,22,14,32,17.50
2012,04,22,14,33,17.50
2012,04,22,14,34,17.60
2012,04,22,14,35,17.60
2012,04,22,14,36,17.70
2012,04,22,14,37,17.70
2012,04,22,14,38,17.70
2012,04,22,14,39,17.80
2012,04,22,14,40,17.80
2012,04,22,14,41,17.80
2012,04,22,14,42,17.80
2012,04,22,14,43,17.80
2012,04,22,14,44,17.80
2012,04,22,14,45,17.80
2012,04,22,14,46,17.80
2012,04,22,14,47,17.70
2012,04,22,14,48,17.70
2012,04,22,14,49,17.70
2012,04,22,14,50,17.70
2012,04,22,14,51,17.70
2012,04,22,14,52,17.70
2012,04,22,14,53,17.70
2012,04,22,14,54,17.80
2012,04,22,14,55,17.90
2012,04,22,14,56,17.90
2012,04,22,14,57,17.90
2012,04,22,14,58,17.90
2012,04,22,14,59,18.00
2012,04,22,15,00,18.00
2012,04,22,15,01,18.10
2012,04,22,15,02,18.10
2012,04,22,15,03,18.20
2012,04,22,15,04,18.20
2012,04,22,15,05,18.20
2012,04,22,15,06,18.30
2012,04,22,15,07,18.30
2012,04,22,15,08,18.30
2012,04,22,15,09,18.40
2012,04,22,15,10,18.40
2012,04,22,15,11,18.50
2012,04,22,15,12,18.50
2012,04,22,15,13,18.60
2012,04,22,15,14,18.50
2012,04,22,15,15,18.40
2012,04,22,15,16,18.40
2012,04,22,15,17,18.30
2012,04,22,15,18,18.30
2012,04,22,15,19,18.20
2012,04,22,15,20,18.20
2012,04,22,15,21,18.20
2012,04,22,15,22,18.20
2012,04,22,15,23,18.20
2012,04,22,15,24,18.30
2012,04,22,15,25,18.30
2012,04,22,15,26,18.40
2012,04,22,15,27,18.40
2012,04,22,15,28,18.30
2012,04,22,15,29,18.30
2012,04,22,15,30,18.30
2012,04,22,15,31,18.30
2012,04,22,15,32,18.30
2012,04,22,15,33,18.30
2012,04,22,15,34,18.30
2012,04,22,15,35,18.30
2012,04,22,15,36,18.30
2012,04,22,15,37,18.30
2012,04,22,15,38,18.30
2012,04,22,15,39,18.20
2012,04,22,15,40,18.20
2012,04,22,15,41,18.20
2012,04,22,15,42,18.30
2012,04,22,15,43,18.30
2012,04,22,15,44,18.30
2012,04,22,15,45,18.30
2012,04,22,15,46,18.30
2012,04,22,15,47,18.40
2012,04,22,15,48,18.40
2012,04,22,15,49,18.40
2012,04,22,15,50,18.40
2012,04,22,15,51,18.40
2012,04,22,15,52,18.30
2012,04,22,15,53,18.30
2012,04,22,15,54,18.30
2012,04,22,15,55,18.30
2012,04,22,15,56,18.40
2012,04,22,15,57,18.40
2012,04,22,15,58,18.50
2012,04,22,15,59,18.60
2012,04,22,16,00,18.70
2012,04,22,16,01,18.80
2012,04,22,16,02,18.80
2012,04,22,16,03,18.90
2012,04,22,16,04,19.00
2012,04,22,16,05,19.10
2012,04,22,16,06,19.20
2012,04,22,16,07,19.30
2012,04,22,16,08,19.40
2012,04,22,16,09,19.40
2012,04,22,16,10,19.50
2012,04,22,16,11,19.50
2012,04,22,16,12,19.60
2012,04,22,16,13,19.60
2012,04,22,16,14,19.60
2012,04,22,16,15,19.60
2012,04,22,16,16,19.60
2012,04,22,16,17,19.50
2012,04,22,16,18,19.50
2012,04,22,16,19,19.40
2012,04,22,16,20,19.30
2012,04,22,16,21,19.20
2012,04,22,16,22,19.20
2012,04,22,16,23,19.10
2012,04,22,16,24,19.00
2012,04,22,16,25,18.90
2012,04,22,16,26,18.90
2012,04,22,16,27,18.90
2012,04,22,16,28,18.90
2012,04,22,16,29,18.90
2012,04,22,16,30,18.90
2012,04,22,16,31,18.90
2012,04,22,16,32,18.90
2012,04,22,16,33,18.90
2012,04,22,16,34,18.90
2012,04,22,16,35,18.90
2012,04,22,16,36,18.90
2012,04,22,16,37,18.80
2012,04,22,16,38,18.80
2012,04,22,16,39,18.80
2012,04,22,16,40,18.80
2012,04,22,16,41,18.80
2012,04,22,16,42,18.80
2012,04,22,16,43,18.90
2012,04,22,16,44,18.90
2012,04,22,16,45,19.00
2012,04,22,16,46,19.10
2012,04,22,16,47,19.20
2012,04,22,16,48,19.20
2012,04,22,16,49,19.10
2012,04,22,16,50,19.10
2012,04,22,16,51,19.10
2012,04,22,16,52,19.10
2012,04,22,16,53,19.10
2012,04,22,16,54,19.10
2012,04,22,16,55,19.10
2012,04,22,16,56,19.20
2012,04,22,16,57,19.30
2012,04,22,16,58,19.40
2012,04,22,16,59,19.50
2012,04,22,17,00,19.60
2012,04,22,17,01,19.70
2012,04,22,17,02,19.80
2012,04,22,17,03,19.80
2012,04,22,17,04,19.80
2012,04,22,17,05,19.80
2012,04,22,17,06,19.70
2012,04,22,17,07,19.70
2012,04,22,17,08,19.60
2012,04,22,17,09,19.60
2012,04,22,17,10,19.50
2012,04,22,17,11,19.50
2012,04,22,17,12,19.50
2012,04,22,17,13,19.50
2012,04,22,17,14,19.50
2012,04,22,17,15,19.50
2012,04,22,17,16,19.40
2012,04,22,17,17,19.40
2012,04,22,17,18,19.30
2012,04,22,17,19,19.20
2012,04,22,17,20,19.20
2012,04,22,17,21,19.20
2012,04,22,17,22,19.10
2012,04,22,17,23,19.10
2012,04,22,17,24,19.10
2012,04,22,17,25,19.10
2012,04,22,17,26,19.10
2012,04,22,17,27,19.10
2012,04,22,17,28,19.00
2012,04,22,17,29,19.00
2012,04,22,17,30,19.00
2012,04,22,17,31,18.90
2012,04,22,17,32,18.90
2012,04,22,17,33,18.80
2012,04,22,17,34,18.80
2012,04,22,17,35,18.80
2012,04,22,17,36,18.80
2012,04,22,17,37,18.80
2012,04,22,17,38,18.80
2012,04,22,17,39,18.80
2012,04,22,17,40,18.90